TimePST,TemperatureF,Dew PointF,Humidity,Sea Level PressureIn,VisibilityMPH,Wind Direction,Wind SpeedMPH,Gust SpeedMPH,PrecipitationIn,Events,Conditions,WindDirDegrees,DateUTC
12:53 AM,-8.0,-11.9,83,30.66,-9999.0,SSW,4.6,-,N/A,,Unknown,210,2013-01-18 08:53:00
1:53 AM,-7.1,-9.9,87,30.63,-9999.0,SW,4.6,-,N/A,,Unknown,220,2013-01-18 09:53:00
2:53 AM,-0.0,-4.0,83,30.58,-9999.0,SSW,10.4,-,N/A,,Unknown,210,2013-01-18 10:53:00
3:53 AM,-0.0,-5.1,79,30.56,-9999.0,SSW,9.2,-,N/A,,Unknown,210,2013-01-18 11:53:00
4:53 AM,-5.1,-9.0,83,30.65,-9999.0,WSW,8.1,-,N/A,,Unknown,240,2013-01-18 12:53:00
5:53 AM,-6.0,-9.9,83,30.73,-9999.0,SW,6.9,-,N/A,,Unknown,220,2013-01-18 13:53:00
6:53 AM,-9.9,-16.1,74,30.76,-9999.0,Calm,Calm,-,N/A,,Unknown,0,2013-01-18 14:53:00
7:53 AM,-4.0,-8.0,83,30.75,-9999.0,SW,8.1,-,N/A,,Unknown,220,2013-01-18 15:53:00
8:53 AM,3.9,1.0,88,30.73,-9999.0,West,3.5,-,N/A,,Unknown,280,2013-01-18 16:53:00
9:53 AM,10.9,5.0,77,30.70,-9999.0,SSW,3.5,-,N/A,,Unknown,210,2013-01-18 17:53:00
10:53 AM,12.9,3.0,65,30.67,-9999.0,ENE,4.6,-,N/A,,Unknown,70,2013-01-18 18:53:00
11:53 AM,15.1,5.0,64,30.63,-9999.0,Calm,Calm,-,N/A,,Unknown,0,2013-01-18 19:53:00
12:53 PM,23.0,8.1,53,30.59,-9999.0,ENE,3.5,-,N/A,,Unknown,60,2013-01-18 20:53:00
1:53 PM,25.0,9.0,51,30.58,-9999.0,Calm,Calm,-,N/A,,Unknown,0,2013-01-18 21:53:00
2:53 PM,28.0,9.0,45,30.53,-9999.0,Calm,Calm,-,N/A,,Unknown,0,2013-01-18 22:53:00
3:53 PM,27.0,9.0,47,30.53,-9999.0,Calm,Calm,-,N/A,,Unknown,0,2013-01-18 23:53:00
4:53 PM,18.0,6.1,60,30.60,-9999.0,Calm,Calm,-,N/A,,Unknown,0,2013-01-19 00:53:00
5:53 PM,1.9,-5.1,72,30.70,-9999.0,South,3.5,-,N/A,,Unknown,170,2013-01-19 01:53:00
6:53 PM,-0.9,-6.0,79,30.74,-9999.0,Calm,Calm,-,N/A,,Unknown,0,2013-01-19 02:53:00
7:53 PM,-0.9,-6.0,79,30.71,-9999.0,SSW,6.9,-,N/A,,Unknown,200,2013-01-19 03:53:00
8:53 PM,-2.9,-7.1,82,30.69,-9999.0,SSW,5.8,-,N/A,,Unknown,210,2013-01-19 04:53:00
9:53 PM,1.9,-2.9,80,30.64,-9999.0,SSW,4.6,-,N/A,,Unknown,210,2013-01-19 05:53:00
10:53 PM,-5.1,-9.9,80,30.66,-9999.0,SSW,4.6,-,N/A,,Unknown,200,2013-01-19 06:53:00
11:53 PM,-2.0,-8.0,76,30.63,-9999.0,SW,9.2,-,N/A,,Unknown,220,2013-01-19 07:53:00